Location: Shepherdstown, WV
(39.4326°N, 77.8042°W)
Time: 09:54:13
(UTC-04:00)

Vanguard 2 Rocket - Pass Details

Date: 08 August 2021
Orbit: 556 x 3324 km, 32.9° (Epoch: 20 September)

Event Time Altitude Azimuth Distance (km) Brightness Sun altitude
Exits shadow 05:38:09 - 227° (SW) 3,553 9.3 -7.7°
Reaches altitude 10° 05:39:07 10° 224° (SW) 3,218 9.1 -7.6°
Maximum altitude 05:45:13 28° 168° (SSE) 1,600 8.0 -6.5°
Drops below altitude 10° 05:49:25 10° 109° (ESE) 2,160 9.6 -5.8°
Sets 05:51:40 0° 96° (E) 2,912 10.6 -5.4°
